Weather History for Ionia, MI

Change the Weather History Date:

Wednesday, February 6, 2013

  Actual Average (KGRR) Record (KGRR)
Temperature  
Mean Temperature 22 °F 25 °F  
Max Temperature 34 °F 32 °F 54 °F (1938)
Min Temperature 10 °F 19 °F -9 °F (1977)
Degree Days  
Heating Degree Days 43 40  
Month to date heating degree days 240  
Since 1 July heating degree days 3947  
Cooling Degree Days 0 0  
Month to date cooling degree days 0  
Year to date cooling degree days 0  
Moisture  
Dew Point 15 °F    
Average Humidity 67    
Maximum Humidity 84    
Minimum Humidity 44    
Precipitation  
Precipitation 0.00 in 0.05 in 0.71 in (2008)
Month to date precipitation 0.33  
Year to date precipitation 2.42  
Snow  
Snow 0.00 in 0.60 in 8.10 in (2008)
Month to date snowfall 3.6  
Since 1 July snowfall 53.6  
Snow Depth -    
Sea Level Pressure  
Sea Level Pressure 30.16 in    
Wind  
Wind Speed 4 mph (South)    
Max Wind Speed 10 mph    
Max Gust Speed -    
Visibility 8 miles    
Events Fog , Snow    
T = Trace of Precipitation, MM = Missing Value Source: NWS Daily Summary

Daily Weather History Graph

Daily Weather History Graph

Search for Another Location

Airport:

Trip Planner

Search our weather history database for the weather conditions in past years. The results will help you decide how hot, cold, wet, or windy it might be!

Date:

Astronomy

Feb. 06, 2013 Rise Set
Actual Time 7:49 AM EST 6:00 PM EST
Civil Twilight 7:19 AM EST 6:29 PM EST
Nautical Twilight 6:45 AM EST 7:03 PM EST
Astronomical Twilight 6:12 AM EST 7:36 PM EST
Moon 4:35 AM EST (2/6) 2:14 PM EST (2/6)
Length of Visible Light 11h 10m
Length of Day
10h 10m
Waning Crescent, 17% of the Moon is Illuminated
Feb 6
Waning Crescent
Feb 10
New
Feb 17
First Quarter
Feb 25
Full
Mar 4
Last Quarter

Hourly Weather History & Observations

Time (EST) Temp. Windchill Dew Point Humidity Pressure Visibility Wind Dir Wind Speed Gust Speed Precip Events Conditions
12:14 AM 26.4 °F 22.4 °F 12.9 °F 57% 29.99 in 10.0 mi NW 3.5 mph - N/A   Overcast
12:33 AM 26.2 °F 20.7 °F 13.5 °F 59% 30.00 in 10.0 mi WNW 4.6 mph - N/A   Overcast
12:54 AM 26.2 °F 19.6 °F 13.3 °F 58% 30.01 in 10.0 mi West 5.8 mph - N/A   Overcast
1:13 AM 26.1 °F 20.5 °F 13.8 °F 60% 30.01 in 10.0 mi West 4.6 mph - N/A   Overcast
1:34 AM 25.3 °F 18.5 °F 14.0 °F 62% 30.01 in 10.0 mi West 5.8 mph - N/A   Overcast
1:54 AM 25.2 °F 17.3 °F 14.0 °F 63% 30.03 in 10.0 mi West 6.9 mph - N/A   Overcast
2:14 AM 24.6 °F 17.7 °F 14.9 °F 67% 30.04 in 10.0 mi WNW 5.8 mph - N/A   Overcast
2:34 AM 24.8 °F 17.9 °F 15.4 °F 68% 30.05 in 10.0 mi West 5.8 mph - N/A   Overcast
2:54 AM 24.3 °F 17.3 °F 15.4 °F 69% 30.06 in 10.0 mi West 5.8 mph - N/A   Mostly Cloudy
3:14 AM 22.1 °F 14.7 °F 14.4 °F 72% 30.06 in 10.0 mi West 5.8 mph - N/A   Mostly Cloudy
3:33 AM 19.4 °F 12.8 °F 13.6 °F 78% 30.06 in 7.0 mi West 4.6 mph - N/A   Scattered Clouds
3:54 AM 17.6 °F 12.3 °F 12.6 °F 81% 30.07 in 10.0 mi West 3.5 mph - N/A   Clear
4:13 AM 19.0 °F 12.3 °F 14.5 °F 83% 30.08 in 7.0 mi WSW 4.6 mph - N/A   Clear
4:34 AM 17.2 °F 10.2 °F 13.1 °F 84% 30.09 in 10.0 mi WSW 4.6 mph - N/A   Clear
4:54 AM 15.8 °F 8.6 °F 11.5 °F 83% 30.11 in 10.0 mi WSW 4.6 mph - N/A   Clear
5:14 AM 16.7 °F - 12.4 °F 83% 30.12 in 7.0 mi Calm Calm - N/A   Clear
5:33 AM 17.1 °F - 12.9 °F 84% 30.12 in 5.0 mi Calm Calm - N/A   Clear
5:54 AM 15.4 °F - 11.1 °F 83% 30.12 in 0.8 mi Calm Calm - N/A   Scattered Clouds
6:13 AM 14.2 °F - 9.5 °F 82% 30.13 in 0.8 mi Calm Calm - N/A Snow Light Snow
6:34 AM 14.7 °F - 9.9 °F 81% 30.14 in 7.0 mi Calm Calm - N/A   Clear
6:53 AM 14.2 °F - 9.7 °F 82% 30.14 in 0.5 mi Calm Calm - N/A Fog Light Freezing Fog
7:14 AM 11.7 °F - 6.3 °F 79% 30.15 in 7.0 mi Calm Calm - N/A   Scattered Clouds
7:33 AM 12.2 °F - 7.2 °F 80% 30.16 in 0.2 mi Calm Calm - N/A   Haze
7:54 AM 10.2 °F - 4.5 °F 78% 30.17 in 7.0 mi Calm Calm - N/A   Scattered Clouds
8:13 AM 10.6 °F 4.3 °F 5.0 °F 78% 30.18 in 4.0 mi SSW 3.5 mph - N/A   Haze
8:34 AM 11.5 °F - 6.1 °F 79% 30.19 in 0.2 mi Calm Calm - N/A   Haze
8:53 AM 12.7 °F - 7.5 °F 80% 30.19 in 2.5 mi Calm Calm - N/A   Haze
9:14 AM 13.8 °F 6.2 °F 8.6 °F 80% 30.19 in 4.0 mi SSE 4.6 mph - N/A   Haze
9:33 AM 15.4 °F 9.8 °F 10.6 °F 81% 30.19 in 4.0 mi South 3.5 mph - N/A   Haze
9:54 AM 16.9 °F 9.8 °F 12.2 °F 82% 30.20 in 7.0 mi South 4.6 mph - N/A   Clear
10:13 AM 20.1 °F - 16.0 °F 84% 30.21 in 7.0 mi Calm Calm - N/A   Clear
10:34 AM 22.5 °F 17.8 °F 18.3 °F 84% 30.23 in 7.0 mi SSW 3.5 mph - N/A   Scattered Clouds
10:54 AM 24.1 °F 19.7 °F 19.9 °F 84% 30.23 in 10.0 mi SSW 3.5 mph - N/A   Overcast
11:34 AM 26.4 °F 20.9 °F 22.3 °F 84% 30.23 in 10.0 mi South 4.6 mph - N/A   Scattered Clouds
11:53 AM 27.7 °F 22.4 °F 20.7 °F 75% 30.23 in 10.0 mi South 4.6 mph - N/A   Clear
12:14 PM 29.7 °F 24.7 °F 17.2 °F 60% 30.24 in 10.0 mi SSW 4.6 mph - N/A   Clear
12:33 PM 30.2 °F 25.4 °F 16.0 °F 56% 30.24 in 10.0 mi SSW 4.6 mph - N/A   Clear
12:54 PM 30.9 °F 26.2 °F 15.4 °F 53% 30.23 in 10.0 mi SSW 4.6 mph - N/A   Clear
1:14 PM 31.8 °F 27.3 °F 16.7 °F 54% 30.23 in 10.0 mi SSW 4.6 mph - N/A   Clear
1:34 PM 31.6 °F 28.3 °F 16.0 °F 52% 30.22 in 10.0 mi SSW 3.5 mph - N/A   Clear
1:54 PM 32.0 °F 26.4 °F 15.8 °F 51% 30.21 in 10.0 mi SSE 5.8 mph - N/A   Clear
2:14 PM 32.4 °F 26.0 °F 16.7 °F 53% 30.21 in 10.0 mi South 6.9 mph - N/A   Clear
2:34 PM 32.7 °F 29.6 °F 16.5 °F 51% 30.20 in 10.0 mi South 3.5 mph - N/A   Clear
2:54 PM 32.4 °F 27.9 °F 16.3 °F 52% 30.19 in 10.0 mi SE 4.6 mph - N/A   Clear
3:14 PM 32.5 °F 28.1 °F 16.5 °F 52% 30.18 in 10.0 mi SE 4.6 mph - N/A   Clear
3:34 PM 32.5 °F 28.1 °F 16.9 °F 53% 30.18 in 10.0 mi SE 4.6 mph - N/A   Clear
3:54 PM 32.9 °F 29.8 °F 16.3 °F 51% 30.19 in 10.0 mi SSE 3.5 mph - N/A   Clear
4:14 PM 33.4 °F - 15.8 °F 48% 30.20 in 10.0 mi Calm Calm - N/A   Clear
4:33 PM 34.7 °F - 14.9 °F 44% 30.20 in 10.0 mi Calm Calm - N/A   Clear
4:54 PM 33.4 °F - 14.9 °F 47% 30.20 in 10.0 mi Calm Calm - N/A   Clear
5:14 PM 33.4 °F - 15.1 °F 47% 30.20 in 10.0 mi Calm Calm - N/A   Scattered Clouds
5:54 PM 32.2 °F - 16.2 °F 52% 30.21 in 10.0 mi Calm Calm - N/A   Scattered Clouds
6:14 PM 30.9 °F 27.5 °F 17.1 °F 57% 30.21 in 10.0 mi ESE 3.5 mph - N/A   Mostly Cloudy
6:34 PM 29.5 °F 23.4 °F 18.1 °F 63% 30.21 in 10.0 mi East 5.8 mph - N/A   Overcast
6:54 PM 30.2 °F 26.7 °F 17.8 °F 60% 30.21 in 10.0 mi ESE 3.5 mph - N/A   Mostly Cloudy
7:13 PM 30.0 °F 25.2 °F 17.1 °F 59% 30.21 in 10.0 mi SE 4.6 mph - N/A   Scattered Clouds
7:34 PM 27.9 °F 21.5 °F 17.2 °F 64% 30.20 in 10.0 mi SSE 5.8 mph - N/A   Scattered Clouds
7:53 PM 26.8 °F 20.2 °F 17.4 °F 68% 30.20 in 10.0 mi SE 5.8 mph - N/A   Mostly Cloudy
8:14 PM 29.3 °F 23.2 °F 19.0 °F 66% 30.20 in 10.0 mi SSE 5.8 mph - N/A   Overcast
8:33 PM 31.1 °F 27.7 °F 18.0 °F 58% 30.20 in 10.0 mi South 3.5 mph - N/A   Overcast
8:54 PM 30.6 °F 24.7 °F 19.0 °F 62% 30.19 in 10.0 mi SSE 5.8 mph - N/A   Overcast
9:13 PM 31.1 °F 25.4 °F 20.3 °F 64% 30.18 in 10.0 mi SSE 5.8 mph - N/A   Overcast
9:34 PM 31.6 °F 23.7 °F 20.5 °F 63% 30.18 in 10.0 mi SSE 9.2 mph - N/A   Overcast
9:53 PM 31.8 °F 25.4 °F 20.1 °F 62% 30.19 in 10.0 mi SSE 6.9 mph - N/A   Overcast
10:14 PM 31.6 °F 23.1 °F 19.8 °F 62% 30.19 in 10.0 mi SSE 10.4 mph - N/A   Overcast
10:33 PM 31.5 °F 23.5 °F 19.2 °F 61% 30.20 in 10.0 mi SSE 9.2 mph - N/A   Overcast
10:54 PM 31.1 °F 23.7 °F 19.4 °F 62% 30.19 in 10.0 mi SSE 8.1 mph - N/A   Overcast
11:13 PM 30.9 °F 23.5 °F 18.9 °F 61% 30.19 in 10.0 mi SSE 8.1 mph - N/A   Overcast
11:34 PM 30.6 °F 22.4 °F 19.6 °F 64% 30.18 in 10.0 mi SSE 9.2 mph - N/A   Overcast
11:54 PM 30.6 °F 23.8 °F 19.4 °F 63% 30.18 in 10.0 mi SSE 6.9 mph - N/A   Overcast